Погода в Карсаве

Латвия     56°46′59″N   27°41′02″E
темп.,
°C
ветер,
м/с
пор.,
м/с
влажн.,
%
обл.,
%
осадки,
мм/ч
давл.,
гПа
погр.,
м
7 марта, вс
вс723:00−1зюз101771100 0.0 10041081
02:000зюз101786100 0.1 10001162
05:00−3сз61481100 2.4 9981187
08:00−3зюз4784100 2.5 997478
11:00−1зсз10167095 1.0 9971909
14:00−1зсз9164783 1.3 9982313
17:00−2зсз6136892 0.1 9981554
20:00−4з6128495 0.1 999997
8 марта, пн
пн823:00−4зсз51091100 0.3 1000727
02:00−5ссз4991100 0.6 1002593
05:00−8ссз4108732 0.0 1005542
08:00−7ссз598865 0.2 1008888
11:00−7с5874100 0.1 1011807
14:00−5ссз5868100 0.1 1013977
17:00−5с476851 0.0 1014909
20:00−8с397931 0.0 1017429
9 марта, вт
вт923:00−10ссз268515 0.0 1018261
02:00−11ссз25888 0.0 1019172
05:00−11сз22910 0.0 102061
08:00−10з128521 0.0 1021109
11:00−6зюз236887 0.0 1021493
14:00−4юз466886 0.0 1020701
17:00−3юз4967100 0.0 1019727
20:00−4зюз51270100 0.0 1018481
10 марта, ср
ср1023:00−4зюз51273100 0.0 1018484
02:00−4зюз51181100 0.0 1018459
05:00−4зюз41085100 0.0 1018449
08:00−4зюз488699 0.1 1019395
11:00−3сз1288100 1.5 1020349
14:00−3св3588100 2.0 1020335
17:00−4св4689100 0.2 1020372
20:00−6всв3792100 0.2 1020351
11 марта, чт
чт1123:00−7св3591100 0.1 1021316
02:00−9св2494100 0.2 1021220
05:00−10св239596 0.0 1020148
08:00−9в119092 0.1 1020112
11:00−4ю248081 0.0 1018446
14:00−1ю477290 0.0 1015926
17:00−2ююв41077100 0.0 1013568
20:00−2ю71669100 0.0 1010835